Meteo pe oră la Dzierzaniny

Astăzi, 5 Martie, Vineri

Timp Temperatura Precipitaţii Vânt Presiune Umiditate
00:00 +4°C° 2.2 mm 2 m/s 722 mmHg 95%
01:00 +3°C° 0 mm 2 m/s 721 mmHg 96%
02:00 +2°C° 0.5 mm 2 m/s 721 mmHg 96%
03:00 +2°C° 0.5 mm 2 m/s 721 mmHg 96%
04:00 +1°C° 0.5 mm 2 m/s 721 mmHg 96%
05:00 +1°C° 0.4 mm 2 m/s 721 mmHg 96%
06:00 -1°C° 0.4 mm 2 m/s 721 mmHg 96%
07:00 -1°C° 0.4 mm 2 m/s 721 mmHg 97%
08:00 -1°C° 0.5 mm 2 m/s 722 mmHg 96%
09:00 -1°C° 0.5 mm 3 m/s 722 mmHg 96%
10:00 -1°C° 0.5 mm 3 m/s 723 mmHg 96%
11:00 -1°C° 0.7 mm 3 m/s 723 mmHg 96%
12:00 -2°C° 0.7 mm 4 m/s 723 mmHg 95%
13:00 -2°C° 0.7 mm 4 m/s 724 mmHg 95%
14:00 -2°C° 0.5 mm 4 m/s 724 mmHg 91%
15:00 -2°C° 0.5 mm 4 m/s 725 mmHg 88%
16:00 -2°C° 0.5 mm 4 m/s 726 mmHg 85%
17:00 -2°C° 0.2 mm 3 m/s 726 mmHg 83%
18:00 -4°C° 0.2 mm 3 m/s 727 mmHg 80%
19:00 -4°C° 0.2 mm 2 m/s 728 mmHg 78%
20:00 -4°C° 0 mm 2 m/s 728 mmHg 79%
21:00 -5°C° 0 mm 2 m/s 729 mmHg 80%
22:00 -3°C° 0 mm 1 m/s 729 mmHg 81%
23:00 -5°C° 0 mm 2 m/s 730 mmHg 81%

Mâine, 6 Martie, Sâmbătă

Timp Temperatura Precipitaţii Vânt Presiune Umiditate
00:00 -5°C° 0 mm 2 m/s 730 mmHg 82%
01:00 -5°C° 0 mm 2 m/s 731 mmHg 82%
02:00 -5°C° 0 mm 2 m/s 731 mmHg 83%
03:00 -5°C° 0 mm 2 m/s 731 mmHg 83%
04:00 -5°C° 0 mm 2 m/s 731 mmHg 83%
05:00 -6°C° 0 mm 3 m/s 732 mmHg 83%
06:00 -6°C° 0 mm 3 m/s 732 mmHg 83%
07:00 -6°C° 0 mm 3 m/s 733 mmHg 83%
08:00 -5°C° 0 mm 3 m/s 733 mmHg 78%
09:00 -4°C° 0 mm 4 m/s 734 mmHg 73%
10:00 -3°C° 0 mm 4 m/s 734 mmHg 68%
11:00 -2°C° 0 mm 4 m/s 734 mmHg 64%
12:00 -2°C° 0 mm 4 m/s 734 mmHg 60%
13:00 -1°C° 0 mm 4 m/s 734 mmHg 56%
14:00 -1°C° 0 mm 4 m/s 734 mmHg 57%
15:00 0°C° 0 mm 3 m/s 733 mmHg 59%
16:00 0°C° 0 mm 3 m/s 733 mmHg 61%
17:00 -1°C° 0 mm 3 m/s 733 mmHg 66%
18:00 -2°C° 0 mm 3 m/s 733 mmHg 71%
19:00 -4°C° 0 mm 2 m/s 733 mmHg 77%
20:00 -4°C° 0 mm 2 m/s 733 mmHg 76%
21:00 -4°C° 0 mm 2 m/s 733 mmHg 76%
22:00 -5°C° 0 mm 3 m/s 733 mmHg 75%
23:00 -5°C° 0 mm 3 m/s 733 mmHg 74%

Poimâine, 7 Martie, Duminică

Timp Temperatura Precipitaţii Vânt Presiune Umiditate
00:00 -5°C° 0 mm 3 m/s 732 mmHg 73%
01:00 -5°C° 0 mm 3 m/s 732 mmHg 72%
02:00 -5°C° 0 mm 3 m/s 732 mmHg 72%
03:00 -4°C° 0 mm 2 m/s 731 mmHg 71%
04:00 -4°C° 0 mm 2 m/s 731 mmHg 71%
05:00 -4°C° 0 mm 2 m/s 730 mmHg 70%
06:00 -4°C° 0 mm 2 m/s 730 mmHg 69%
07:00 -5°C° 0 mm 3 m/s 730 mmHg 69%
08:00 -2°C° 0 mm 3 m/s 730 mmHg 63%
09:00 -2°C° 0 mm 4 m/s 730 mmHg 57%
10:00 0°C° 0 mm 5 m/s 729 mmHg 51%
11:00 +1°C° 0 mm 4 m/s 729 mmHg 50%
12:00 +3°C° 0 mm 4 m/s 729 mmHg 50%
13:00 +3°C° 0 mm 4 m/s 728 mmHg 50%
14:00 +3°C° 0 mm 4 m/s 728 mmHg 53%
15:00 +3°C° 0 mm 3 m/s 727 mmHg 57%
16:00 +2°C° 0 mm 3 m/s 726 mmHg 60%
17:00 +2°C° 0 mm 2 m/s 726 mmHg 64%
18:00 -1°C° 0 mm 2 m/s 726 mmHg 68%
19:00 -2°C° 0 mm 2 m/s 725 mmHg 71%
20:00 -3°C° 0 mm 2 m/s 725 mmHg 72%
21:00 -3°C° 0 mm 2 m/s 725 mmHg 73%
22:00 -3°C° 0 mm 2 m/s 725 mmHg 74%
23:00 -3°C° 0 mm 2 m/s 725 mmHg 75%

8 Martie, Luni

Timp Temperatura Precipitaţii Vânt Presiune Umiditate
00:00 -3°C° 0 mm 2 m/s 724 mmHg 76%
01:00 -4°C° 0 mm 2 m/s 724 mmHg 76%
02:00 -4°C° 0 mm 2 m/s 724 mmHg 78%
03:00 -4°C° 0 mm 2 m/s 724 mmHg 80%
04:00 -4°C° 0 mm 2 m/s 723 mmHg 81%
05:00 -4°C° 0 mm 3 m/s 723 mmHg 82%
06:00 -4°C° 0 mm 3 m/s 723 mmHg 83%
07:00 -4°C° 0 mm 4 m/s 723 mmHg 84%
08:00 -3°C° 0 mm 4 m/s 723 mmHg 83%
09:00 -2°C° 0 mm 5 m/s 724 mmHg 81%
10:00 -1°C° 0 mm 5 m/s 724 mmHg 80%
11:00 -1°C° 0.1 mm 5 m/s 724 mmHg 81%
12:00 -1°C° 0.1 mm 5 m/s 724 mmHg 82%
13:00 0°C° 0.1 mm 5 m/s 724 mmHg 84%
14:00 -1°C° 0.4 mm 4 m/s 724 mmHg 83%
15:00 -2°C° 0.4 mm 4 m/s 724 mmHg 83%
16:00 -1°C° 0.4 mm 3 m/s 724 mmHg 83%
17:00 -2°C° 0.1 mm 3 m/s 725 mmHg 83%
18:00 -3°C° 0.1 mm 2 m/s 725 mmHg 83%
19:00 -4°C° 0.1 mm 2 m/s 726 mmHg 83%
20:00 -4°C° 0 mm 2 m/s 726 mmHg 83%
21:00 -4°C° 0 mm 2 m/s 727 mmHg 83%
22:00 -3°C° 0 mm 1 m/s 727 mmHg 84%
23:00 -3°C° 0 mm 1 m/s 727 mmHg 85%

9 Martie, Marţi

Timp Temperatura Precipitaţii Vânt Presiune Umiditate
00:00 -3°C° 0 mm 1 m/s 727 mmHg 86%
01:00 -3°C° 0 mm 1 m/s 727 mmHg 87%
02:00 -3°C° 0 mm 1 m/s 727 mmHg 88%
03:00 -4°C° 0 mm 1 m/s 727 mmHg 89%
04:00 -4°C° 0 mm 1 m/s 727 mmHg 90%
05:00 -4°C° 0 mm 1 m/s 727 mmHg 89%
06:00 -4°C° 0 mm 1 m/s 728 mmHg 88%
07:00 -4°C° 0 mm 1 m/s 728 mmHg 87%
08:00 -3°C° 0 mm 1 m/s 728 mmHg 80%
09:00 -2°C° 0 mm 1 m/s 728 mmHg 73%
10:00 -1°C° 0 mm 1 m/s 729 mmHg 66%
11:00 -1°C° 0 mm 1 m/s 729 mmHg 62%
12:00 0°C° 0 mm 1 m/s 729 mmHg 58%
13:00 0°C° 0 mm 1 m/s 729 mmHg 53%
14:00 0°C° 0 mm 1 m/s 728 mmHg 54%
15:00 0°C° 0 mm 1 m/s 728 mmHg 54%
16:00 0°C° 0 mm 1 m/s 728 mmHg 55%
17:00 -1°C° 0 mm 1 m/s 728 mmHg 59%
18:00 -2°C° 0 mm 1 m/s 728 mmHg 62%
19:00 -2°C° 0 mm 1 m/s 728 mmHg 66%
20:00 -2°C° 0 mm 1 m/s 728 mmHg 66%
21:00 -2°C° 0 mm 1 m/s 729 mmHg 65%
22:00 -3°C° 0 mm 1 m/s 729 mmHg 64%
23:00 -3°C° 0 mm 1 m/s 729 mmHg 65%

10 Martie, Miercuri

Timp Temperatura Precipitaţii Vânt Presiune Umiditate
00:00 -3°C° 0 mm 1 m/s 729 mmHg 65%
01:00 -4°C° 0 mm 1 m/s 728 mmHg 66%
02:00 -4°C° 0 mm 1 m/s 728 mmHg 66%
03:00 -4°C° 0 mm 1 m/s 728 mmHg 67%
04:00 -4°C° 0 mm 1 m/s 728 mmHg 67%
05:00 -4°C° 0 mm 1 m/s 728 mmHg 66%
06:00 -4°C° 0 mm 1 m/s 729 mmHg 66%
07:00 -3°C° 0 mm 1 m/s 729 mmHg 65%
08:00 -2°C° 0 mm 1 m/s 729 mmHg 58%
09:00 0°C° 0 mm 1 m/s 729 mmHg 51%
10:00 +1°C° 0 mm 1 m/s 729 mmHg 45%
11:00 +2°C° 0 mm 1 m/s 729 mmHg 42%
12:00 +3°C° 0 mm 1 m/s 729 mmHg 39%
13:00 +4°C° 0 mm 1 m/s 728 mmHg 36%
14:00 +4°C° 0 mm 1 m/s 728 mmHg 40%
15:00 +3°C° 0 mm 0 m/s 728 mmHg 45%
16:00 +3°C° 0 mm 0 m/s 727 mmHg 49%
17:00 +2°C° 0 mm 1 m/s 727 mmHg 53%
18:00 +1°C° 0 mm 1 m/s 727 mmHg 57%
19:00 -2°C° 0 mm 2 m/s 727 mmHg 61%
20:00 -2°C° 0 mm 2 m/s 727 mmHg 65%
21:00 -2°C° 0 mm 2 m/s 727 mmHg 68%
22:00 -2°C° 0 mm 2 m/s 726 mmHg 72%
23:00 -2°C° 0 mm 2 m/s 726 mmHg 73%
Arată mai mult

Formular de consimțământ

Meteoprog și furnizorii noștri de servicii pot stoca și accesa date personale, precum cookies, identificatori de dispozitiv sau alte tehnologii similare pe dispozitivul dumneavoastră și procesa astfel de date pentru a personaliza conținutul și reclamele, dar și pentru a oferi caracteristici de social media și pentru a analiza traficul.

  • Stocarea și/sau accesarea informațiilor pe dispozitivul dumneavoastră

    Cookies, identificatori de dispozitiv sau alte informații pot fi stocate sau accesate pe dispozitiv în scopurile indicate mai sus.

  • Reclame și conținut personalizat, evaluarea reclamelor și a conținutului, informații despre audiențe și dezvoltarea produselor

    Reclamele și conținutul pot fi personalizate pe baza unui profil. Pot fi adăugate date suplimentare pentru a personaliza mai bine reclamele și conținutul. Performanța reclamelor și conținutului poate fi măsurată. Pot fi obținute informații despre utilizatorii care au văzut reclamele și conținutul. Aceste date pot fi utilizate pentru a dezvolta sau îmbunătăți experiența utilizatorilor, sistemele și software-ul.

Dând clic pe ‘Sunt de acord’, permiteți utilizarea cookie-urilor menționate, a identificatorilor de dispozitiv, balizelor web sau altor tehnologii similare. Setările pot fi modificate din browser-ul dispozitivului dumneavoastră.

În anumite scopuri, interesele legitime pot prima asupra consimțământului. Puteți citi mai multe informații în acest sens în Politica privind Confidențialitatea Datelor și Cookie.